Ketchikan, AK

10:40 PM AKDT on September 04, 2015 (GMT -0800)
Ketchikan International | | Change Station
CLOSE
Current Station
Airport
Location: Ketchikan,
Elevation: 95 ft
Nearby Weather Stations

Elev 95 ft 55.36 °N, 131.71 °W | Updated 47 minutes ago

Clear
Clear
55 °F
Feels Like 55 °F
N
7
Wind Variable Wind from SSE

Today
High -- | Low -- °F
--% Chance of Precip.
Yesterday
High -- | Low -- °F
Precip. -- in
5:58 AM 7:32 PM
Waning Gibbous, 51% visible
Pressure 30.00 in
Visibility 10.0 miles
Clouds Clear
Dew Point 47 °F
Humidity 74%
Rainfall 0.00 in
Snow Depth Not available.
UV 0 out of 12
Pollen Not available.
Air Quality Not available.
Flu Activity Not available.
METAR PAKT 050553Z AUTO 16006KT 10SM CLR 13/08 A3000 RMK AO2 SLP159 T01280083 10172 20122 56008 TSNO
Pressure 30.00 in
Visibility 10.0 miles
Clouds Clear
Dew Point 47 °F
Humidity 74%
Rainfall 0.00 in
Snow Depth Not available.
UV 0 out of 12
Pollen Not available.
Air Quality Not available.
Flu Activity Not available.
METAR PAKT 050553Z AUTO 16006KT 10SM CLR 13/08 A3000 RMK AO2 SLP159 T01280083 10172 20122 56008 TSNO

10-Day Weather Forecast

×

Almanac

Astronomy

Sep. 04, 2015 Rise Set
Actual Time
Civil Twilight
Nautical Twilight
Astronomical Twilight
Moon
Length of Visible Light
Length of Day
Tomorrow will be .
, % of the Moon is Illuminated

Today's Extremes

State Highs State Lows

Community

WunderPhotos

Upload Photos

1,852,430 photos uploaded!

WunderBlogs® & News

Nearby

Air Quality

  Air Quality AQ Index Pollutant
Not available.

Snow Depth

Station Depth Elevation

Earthquake Activity

City Distance Mag. Time & Date
Minimum magnitude displayed is 2.5.

Coastal Water Temperatures

Place Temperature

Stations

Nearby Weather Stations

Station Location Temp. Windchill Dew Point Humidity Wind Precip. Elev Updated Type